Clinton, British Columbia

11:53 AM PST on February 19, 2017 (GMT -0800)
Clinton

Weather History for CWCL - May, 2013

Change the Weather History Date:

Saturday, May 18, 2013

  Actual Average Record
Temperature  
Mean Temperature 50 °F -  
Max Temperature 62 °F 61 °F 78 °F (2006)
Min Temperature 38 °F 38 °F 28 °F (2002)
Degree Days  
Heating Degree Days 15    
Moisture  
Dew Point 34 °F    
Average Humidity 51    
Maximum Humidity 81    
Minimum Humidity 20    
Precipitation  
Precipitation 0.02 in - - ()
Sea Level Pressure  
Sea Level Pressure 29.99 in    
Wind  
Wind Speed 5 mph ()    
Max Wind Speed 12 mph    
Max Gust Speed -    
Visibility 9.0 miles    
Events      
Averages and records for this station are not official NWS values.
T = Trace of Precipitation, MM = Missing Value Source: Averaged Metar Reports

Daily Weather History Graph

Daily Weather History Graph

Search for Another Location

Airport or City:

Trip Planner

Search our weather history database for the weather conditions in past years. The results will help you decide how hot, cold, wet, or windy it might be!

Date:

Astronomy

May. 18, 2013 Rise Set
Actual Time 5:10 AM PDT 8:54 PM PDT
Civil Twilight 4:29 AM PDT 9:36 PM PDT
Nautical Twilight 3:31 AM PDT 10:34 PM PDT
Astronomical Twilight 2:02 AM PDT 12:07 AM PDT
Moon 1:18 PM PDT (5/18) 1:54 AM PDT (5/18)
Length of Visible Light 17h 07m
Length of Day
15h 44m
First Quarter, 56% of the Moon is Illuminated
May 18
First Quarter
May 24
Full
May 31
Last Quarter
Jun 8
New
Jun 16
First Quarter

Hourly Weather History & Observations

Time (PDT) Temp. Windchill Dew Point Humidity Pressure Visibility Wind Dir Wind Speed Gust Speed Precip Events Conditions
12:00 AM 48.2 °F - 39.2 °F 71% 29.89 in 9.0 mi SSW 3.5 mph - N/A   Mostly Cloudy
1:00 AM 44.6 °F 43.1 °F 37.4 °F 76% 29.90 in 9.0 mi SW 3.5 mph - N/A   Clear
2:00 AM 47 °F - 37 °F 58% 29.92 in 9 mi SSW 4.6 mph - -  
2:00 AM 46.4 °F 45.2 °F 37.4 °F 71% 29.92 in 9.0 mi SSW 3.5 mph - N/A   Mostly Cloudy
3:00 AM 44.6 °F 42.2 °F 37.4 °F 76% 29.93 in 9.0 mi South 4.6 mph - N/A   Overcast
4:00 AM 44.6 °F 41.4 °F 35.6 °F 71% 29.93 in 9.0 mi SW 5.8 mph - N/A   Overcast
5:00 AM 40 °F - 33 °F 68% 29.94 in 9 mi SSW 3.5 mph - -  
5:00 AM 39.2 °F 37.0 °F 33.8 °F 81% 29.94 in 9.0 mi SW 3.5 mph - N/A   Partly Cloudy
6:00 AM 41.0 °F 38.0 °F 35.6 °F 81% 29.96 in 9.0 mi SSE 4.6 mph - N/A   Clear
7:00 AM 46.4 °F 42.9 °F 35.6 °F 66% 29.96 in 9.0 mi South 6.9 mph - N/A   Clear
8:00 AM 50 °F - 37 °F 49% 29.96 in 9 mi South 8.1 mph - -  
8:00 AM 50.0 °F - 37.4 °F 62% 29.96 in 9.0 mi South 11.5 mph - N/A   Partly Cloudy
9:00 AM 51.8 °F - 35.6 °F 54% 29.97 in 9.0 mi South 8.1 mph - N/A   Clear
10:00 AM 55.4 °F - 35.6 °F 47% 29.97 in 9.0 mi SSE 9.2 mph - N/A   Clear
11:00 AM 60 °F - 34 °F 26% 29.96 in 9 mi SSE 8.1 mph - -  
11:00 AM 60.8 °F - 33.8 °F 36% 29.96 in 9.0 mi South 6.9 mph - N/A   Partly Cloudy
12:00 PM 57.2 °F - 30.2 °F 36% 29.97 in 9.0 mi SSW 8.1 mph - N/A   Scattered Clouds
1:00 PM 59.0 °F - 30.2 °F 34% 29.98 in 9.0 mi SW 3.5 mph - N/A   Mostly Cloudy
2:00 PM 59 °F - 29 °F 20% 29.98 in 9 mi South 5.8 mph - -  
2:00 PM 59.0 °F - 28.4 °F 31% 29.98 in 9.0 mi South 4.6 mph - N/A   Scattered Clouds
3:00 PM 60.8 °F - 32.0 °F 34% 29.99 in 9.0 mi SW 6.9 mph - N/A   Mostly Cloudy
4:00 PM 59.0 °F - 30.2 °F 34% 30.01 in 9.0 mi WNW 3.5 mph - N/A   Overcast
5:00 PM 60 °F - 33 °F 25% 30.04 in 9 mi WSW 6.9 mph - -   Overcast
5:00 PM 60.8 °F - 33.8 °F 36% 30.04 in 9.0 mi SW 6.9 mph - N/A   Overcast
6:00 PM 59.0 °F - 32.0 °F 36% 30.05 in 9.0 mi SW 2.3 mph - N/A   Overcast
7:00 PM 59.0 °F - 33.8 °F 39% 30.04 in 9.0 mi SSE 3.5 mph - N/A   Overcast
8:00 PM 55.4 °F - 33.8 °F 44% 30.05 in 9.0 mi WSW 4.6 mph - N/A   Mostly Cloudy
9:00 PM 50.0 °F - 32.0 °F 50% 30.08 in 9.0 mi West 6.9 mph - N/A   Clear
10:00 PM 44.6 °F 40.7 °F 32.0 °F 61% 30.10 in 9.0 mi West 6.9 mph - N/A   Clear
11:00 PM 45 °F - 33 °F 50% 30.12 in 9 mi NNE 2.3 mph - -  
11:00 PM 44.6 °F 43.1 °F 32.0 °F 61% 30.12 in 9.0 mi North 3.5 mph - N/A   Mostly Cloudy